Skip Page Navigation
NASA JPL Caltech
NASA Logo - Jet Propulsion Laboratory + View the NASA Portal
+ Center for Near-Earth Object Studies
JPL Home Earth Solar System Stars & Galaxies Technology
JPL Solar System Dynamics
BODIES ORBITS EPHEMERIDES TOOLS PHYSICAL DATA DISCOVERY FAQ SITE MAP
IMPORTANT: The SSD Announcement email list is now available. Major changes are coming in the near future, including possible hostname and/or URL changes. To be notified of such changes, subscribe to this email list.

Please visit this page for more details.


JPL Small-Body Database Browser
Search: [ help ]  
34434 (2000 SE39)
Classification: Main-belt Asteroid          SPK-ID: 2034434
Ephemeris | Orbit Diagram | Orbital Elements | Mission Design | Physical Parameters | Discovery Circumstances | Close-Approach Data ]

[ show orbit diagram ]
Orbital Elements at Epoch 2459000.5 (2020-May-31.0) TDB
Reference: JPL 31 (heliocentric ecliptic J2000)
 Element Value Uncertainty (1-sigma)   Units 
e .06311460118241671 3.4614e-08  
a 2.735813552416216 1.2431e-08 au
q 2.563143771146016 9.3769e-08 au
i 6.379175367888561 3.7646e-06 deg
node 112.9327357961288 3.3783e-05 deg
peri 297.0721164640697 4.8676e-05 deg
M 89.57406681895021 3.335e-05 deg
tp 2458589.248056485021
(2019-Apr-15.74805648)
0.00015355 TDB
period 1652.829942003603
4.53
1.1265e-05
3.084e-08
d
yr
n .217808251684743 1.4845e-09 deg/d
Q 2.908483333686416 1.3215e-08 au
  Orbit Determination Parameters
   # obs. used (total)      1969  
   data-arc span      13680 days (37.45 yr)  
   first obs. used      1982-11-14  
   last obs. used      2020-04-28  
   planetary ephem.      DE431  
   SB-pert. ephem.      SB431-N16  
   condition code      0  
   norm. resid. RMS      .49851  
   source      ORB  
   producer      Otto Matic  
   solution date      2020-May-20 07:48:27  

Additional Information
 Earth MOID = 1.58169 au 
 Jupiter MOID = 2.32381 au 
 T_jup = 3.340 
[ show covariance matrix ]

Ephemeris | Orbit Diagram | Orbital Elements | Mission Design | Physical Parameters | Discovery Circumstances | Close-Approach Data ]

Physical Parameter Table
Parameter Symbol Value Units Sigma Reference Notes
absolute magnitude H 13.8   n/a MPO365659  
diameter diameter 8.723 km 1.760 urn:nasa:pds:neowise_diameters_albedos::2.0[mainbelt] (http://adsabs.harvard.edu/abs/2016AJ....152...63N)  
geometric albedo albedo 0.077   0.047 urn:nasa:pds:neowise_diameters_albedos::2.0[mainbelt] (http://adsabs.harvard.edu/abs/2016AJ....152...63N)  

34434 (2000 SE39)          Discovered 2000-Sep-24 by LINEAR at Socorro
Reference: 20020128/Numbers.arcLast Updated: 2004-04-19

[ show close-approach data ]
Alternate Designations
 2000 SE39 = 1982 VH2 = 1986 PC3 = 1991 RH38 
Ephemeris | Orbit Diagram | Orbital Elements | Mission Design | Physical Parameters | Discovery Circumstances | Close-Approach Data ]
ABOUT SSD CREDITS/AWARDS PRIVACY/COPYRIGHT GLOSSARY LINKS
FirstGov 2020-Jun-07 06:21 UT
(server date/time)  
NASA Home Page
Site Manager:   Ryan S. Park
Webmaster  Alan B. Chamberlin